Regional Weather Roundup
Issued by NWS

Home | Current Version | Previous Version | Graphics & Text | Print | Product List | Glossary On
Versions: 1 2 3 4 5 6 7 8 9 10 11 12 13 14 15 16 17 18 19 20 21 22 23 24 25 26 27
000
ASUS45 KBOI 240010
RWRID

IDAHO REGIONAL WEATHER ROUNDUP
NATIONAL WEATHER SERVICE BOISE ID
600 PM MDT MON APR 23 2018

NOTE: "FAIR" INDICATES FEW OR NO CLOUDS BELOW 12000 FEET
WITH NO SIGNIFICANT WEATHER AND/OR OBSTRUCTIONS TO VISIBILITY

IDZ012-014-240100-
SOUTHWEST IDAHO


CITY           SKY/WX    TMP DP  RH WIND       PRES   REMARKS
BOISE          SUNNY     64  28  25 NW17G23   30.19S
CALDWELL       SUNNY     66  24  20 NW9       30.20F
MOUNTAIN HOME  SUNNY     65  25  22 NW20      30.17F
$$

IDZ016-017-240100-
SOUTHCENTRAL IDAHO


CITY           SKY/WX    TMP DP  RH WIND       PRES   REMARKS
BURLEY         MOSUNNY   58  20  22 NW8       30.20R
JEROME         MOSUNNY   60  26  27 W8        30.20S
TWIN FALLS     SUNNY     59  25  27 W15       30.21R
$$

IDZ019>023-240100-
SOUTHEAST IDAHO


CITY           SKY/WX    TMP DP  RH WIND       PRES   REMARKS
IDAHO FALLS    LGT RAIN  43  38  82 NE3       30.27R
POCATELLO      PTSUNNY   51  37  58 NE14      30.26S
REXBURG        CLOUDY    43  38  82 CALM      30.27R
$$

IDZ006-010-011-018-031-032-240100-
CENTRAL IDAHO MOUNTAINS


CITY           SKY/WX    TMP DP  RH WIND       PRES   REMARKS
MCCALL         SUNNY     54  20  26 N14G22    30.23R
HAILEY         CLOUDY    45  37  76 NW5       30.28R
STANLEY          N/A     46  26  45 VRB6      30.25R
SALMON         LGT RAIN  50  30  46 SE13      30.32R
CHALLIS        CLOUDY    50  27  40 NE12G23   30.27R
$$

IDZ002-004-006-007-026-240100-
NORTHERN IDAHO


CITY           SKY/WX    TMP DP  RH WIND       PRES   REMARKS
LEWISTON       SUNNY     67  29  24 E8        30.29F
LOWELL           N/A     64  33  31 CALM      30.27R
COEUR D`ALENE  SUNNY     63  25  23 NW7       30.32S
MULLAN PASS    MOSUNNY   45  17  32 VRB3      30.36S
$$




USA.gov is the U.S. government's official web portal to all federal, state and local government web resources and services.